Theta_e
325 329 331 332 329 329 330 330 333 331 328 329 330 329 328 326 326 326 326 325 325 325 325 326 326 324 326 325 332 342 343 345 346 345 346 345 345 344 342 342 342 341 341 338
326 328 327 326 327 330 331 332 334 331 329 330 331 331 329 328 327 326 326 326 326 326 325 325 324 323 324 324 331 343 343 345 346 345 345 345 344 344 344 343 342 343 341 337
322 322 325 328 330 331 332 334 332 332 330 330 330 332 330 329 328 327 326 326 326 326 325 323 321 320 325 323 334 343 343 344 345 345 345 345 344 344 344 343 342 341 342 339
312 314 321 324 328 328 334 330 332 333 334 337 332 340 333 330 330 329 328 326 326 326 324 323 323 320 322 324 330 342 343 343 344 345 345 345 345 343 343 343 344 344 342 341
312 310 317 319 320 323 327 328 326 327 333 331 334 337 333 328 329 328 327 326 326 325 325 324 324 321 324 324 323 340 345 344 344 344 344 343 342 342 342 343 343 343 343 342
315 311 311 312 315 319 324 326 327 327 322 328 326 336 333 330 327 326 327 325 323 323 324 323 322 319 318 319 323 336 345 345 344 344 343 343 342 342 341 341 342 342 342 341
310 312 312 313 316 317 320 324 328 328 326 332 329 333 331 328 327 327 323 315 315 314 315 316 316 315 315 316 318 320 325 323 330 338 342 342 341 342 341 340 341 341 341 341
313 310 310 307 313 318 320 323 327 330 324 325 329 332 335 328 326 315 313 311 310 311 311 310 310 310 310 311 312 314 315 317 322 328 333 337 341 340 338 338 339 340 340 340
310 308 308 308 308 312 320 322 320 324 321 326 328 325 323 316 314 312 311 310 309 307 307 307 306 306 307 307 307 309 309 310 316 320 323 330 336 339 336 334 335 339 338 339
305 308 310 311 310 310 313 315 325 325 329 329 329 327 329 316 313 311 310 309 308 307 307 306 305 304 303 303 305 307 307 307 309 315 319 321 326 331 335 336 338 338 337 338
305 309 307 311 314 314 313 315 315 314 318 327 322 317 310 313 312 311 311 311 310 310 308 307 306 305 303 303 302 303 304 306 308 307 309 317 320 322 322 323 324 327 332 334
305 307 308 312 313 312 311 313 314 312 317 317 319 313 305 309 310 311 312 310 310 311 308 307 306 305 302 302 302 301 302 303 305 307 307 307 310 315 317 318 317 317 317 321
306 308 307 308 312 307 312 314 313 312 314 311 316 314 306 306 305 308 309 310 310 311 310 307 305 306 305 303 302 302 302 303 302 303 304 304 306 308 310 317 317 316 316 315
306 305 305 307 309 308 309 312 313 309 307 312 316 314 311 307 306 304 305 309 308 308 308 307 305 305 303 301 301 302 301 302 304 302 304 305 305 305 307 309 315 316 315 315
304 300 304 303 307 305 305 308 311 312 313 313 313 316 314 310 310 310 311 311 310 307 307 306 304 302 303 301 301 302 301 301 301 301 301 301 303 306 306 306 307 311 313 313
301 300 302 302 301 300 303 306 306 310 312 312 310 311 312 311 310 311 310 312 310 307 306 303 300 300 300 299 299 300 301 301 301 301 301 301 301 306 304 302 305 309 311 312
300 297 300 301 300 301 300 303 305 307 310 311 311 308 312 312 310 310 310 306 302 301 300 299 299 299 299 299 300 300 300 301 301 300 301 301 301 301 302 302 302 305 307 310
296 298 298 300 300 292 305 305 304 303 303 304 307 308 305 302 302 302 302 301 300 300 299 299 298 298 299 299 300 300 300 300 301 300 300 300 301 301 301 301 302 302 304 308
298 297 295 295 302 301 306 306 305 304 304 302 302 303 302 301 300 300 301 300 299 298 298 297 298 298 298 299 299 299 299 299 300 300 300 300 300 300 301 301 301 302 303 305
300 298 295 296 298 300 307 304 304 303 306 304 301 300 300 300 299 298 299 299 299 298 297 297 297 298 298 299 299 299 298 299 299 299 299 300 300 300 300 301 300 301 303 305
299 296 292 295 292 297 302 303 303 305 304 302 300 300 299 299 298 298 298 297 297 296 297 297 297 297 298 299 299 298 298 298 298 298 298 298 298 299 300 300 300 300 302 305
299 294 291 296 297 297 302 303 305 303 302 300 298 298 298 297 297 297 297 296 296 296 296 296 296 297 298 298 297 297 297 297 296 296 296 296 296 296 297 299 299 300 302 305
303 304 304 297 299 302 303 303 302 302 299 298 297 296 296 296 296 296 295 295 296 295 295 295 295 297 296 296 296 295 295 294 294 293 293 293 294 294 295 296 298 297 299 299
302 303 302 304 301 301 301 302 300 298 297 295 295 295 294 294 294 293 294 294 294 293 294 294 294 294 294 295 294 293 292 292 292 292 291 291 292 293 294 295 296 296 296 296
297 300 301 302 302 302 302 301 299 297 295 295 294 293 293 293 293 292 292 293 293 294 294 294 294 295 294 292 291 291 291 291 291 291 290 291 291 291 291 293 294 295 296 296
297 295 297 297 299 299 298 298 296 295 294 294 293 293 293 292 292 292 292 293 293 292 292 292 292 292 291 291 290 290 290 290 290 290 290 290 290 290 290 291 293 294 295 295
Wind_Speed
22 16 29 38 35 30 30 28 30 31 16 23 25 30 43 21 23 26 24 21 24 24 23 31 32 34 34 33 38 41 42 43 43 38 37 34 36 35 36 39 41 46 44 45
22 31 35 31 33 32 34 32 34 33 27 19 21 30 39 28 29 25 25 22 24 22 20 21 22 26 28 35 38 39 44 45 46 43 42 40 39 41 42 40 42 44 45 44
34 36 27 30 29 36 34 34 37 33 15 27 29 32 40 25 26 23 26 24 26 25 20 16 9 13 26 25 34 39 43 46 47 44 39 35 29 25 28 33 35 38 39 43
23 28 31 34 31 26 33 35 33 37 27 26 19 15 32 25 27 27 27 28 27 24 19 17 15 8 16 26 40 41 45 46 46 44 39 40 36 25 24 35 37 38 44 47
29 32 31 35 35 26 37 16 14 14 19 25 22 12 43 14 23 25 22 27 27 27 23 21 21 5 7 9 19 35 42 42 44 44 41 35 33 36 42 37 35 37 44 46
25 27 26 36 30 30 23 23 19 18 5 10 22 19 23 15 5 12 3 5 8 8 6 3 10 21 18 23 23 18 23 25 26 33 35 37 33 33 31 29 30 32 37 41
18 8 22 32 28 28 25 22 10 5 5 5 4 16 23 6 10 2 13 12 13 16 17 17 18 16 17 23 23 24 26 26 18 15 24 30 34 36 32 27 26 26 28 35
7 11 17 14 3 11 21 19 15 5 9 14 10 7 9 20 5 20 16 15 16 18 17 18 17 16 18 22 27 28 29 26 27 26 16 15 27 30 35 36 35 32 33 34
7 5 1 6 3 6 4 19 20 19 24 9 5 5 11 17 19 18 14 15 18 17 17 17 16 15 21 24 25 26 27 28 33 30 30 27 10 18 32 41 31 37 40 38
5 9 7 2 5 7 2 5 4 11 6 11 8 5 4 7 17 15 14 12 14 14 15 14 14 13 21 22 24 28 29 29 31 30 30 30 27 21 12 15 21 21 31 34
6 4 6 6 3 4 2 1 1 3 3 4 1 4 6 8 11 13 12 9 12 11 12 11 11 15 20 21 26 27 29 29 29 27 25 24 23 22 21 20 16 11 7 11
4 4 6 4 2 9 4 6 4 3 2 3 2 3 3 6 7 8 7 7 9 11 11 10 9 11 18 20 23 25 26 25 23 22 23 23 21 17 15 15 15 13 9 6
4 4 4 3 1 6 5 5 3 2 2 5 4 3 0 5 6 8 7 8 12 13 12 10 9 8 7 14 19 20 21 21 23 20 17 18 18 17 14 10 9 9 9 9
4 2 2 4 5 4 5 7 5 1 2 3 3 4 2 4 7 6 6 6 12 11 9 7 6 6 8 15 15 15 19 20 16 18 17 15 15 12 13 10 5 4 6 8
5 2 4 9 3 5 8 6 5 4 1 4 6 4 6 4 5 8 7 6 7 9 9 4 3 2 2 6 9 6 12 16 17 16 16 13 12 9 10 8 6 4 4 6
8 4 7 5 11 14 6 9 6 6 7 6 7 5 6 3 3 2 2 3 5 4 8 6 7 8 2 4 3 5 2 6 4 5 10 10 12 7 9 11 10 7 5 3
3 1 4 5 11 9 6 9 9 11 9 4 3 3 5 4 7 4 11 11 9 6 7 6 5 2 1 1 2 6 8 5 7 9 11 12 12 12 10 12 12 12 10 8
4 2 1 3 6 5 8 13 16 23 17 14 13 16 16 14 16 16 11 10 9 9 8 8 6 7 11 14 13 13 14 12 14 14 14 14 17 15 16 16 14 14 14 13
9 3 1 2 2 5 7 11 10 11 16 16 13 12 11 10 15 13 11 11 10 9 8 8 14 15 20 21 20 18 17 17 16 20 24 24 21 19 19 19 20 17 14 12
5 5 4 3 3 3 6 13 16 5 6 12 10 11 10 9 8 4 6 9 10 8 13 14 18 18 21 23 24 20 19 18 18 21 24 26 28 28 25 25 24 22 17 15
4 3 4 2 1 4 10 12 9 3 3 3 2 6 9 7 3 0 6 8 6 9 15 20 20 16 16 19 16 15 17 15 20 22 23 25 25 23 24 30 29 24 21 19
2 1 1 2 1 3 11 6 5 3 5 3 9 7 9 7 9 8 9 8 7 6 10 15 14 15 17 19 22 17 12 15 21 23 23 25 29 31 29 26 26 28 22 20
2 4 2 2 2 3 4 4 2 4 4 6 9 6 6 7 7 7 7 10 10 7 9 13 13 13 17 19 15 18 26 29 26 22 22 23 24 31 34 29 26 21 23 15
1 2 3 1 4 2 9 8 3 6 8 5 5 5 7 6 6 6 6 6 7 9 12 16 16 15 14 13 18 20 21 23 27 29 29 24 23 23 25 28 24 21 17 17
3 2 1 1 4 5 7 6 2 5 7 7 8 9 7 5 4 4 6 7 7 11 15 15 15 14 18 20 20 21 23 23 24 26 28 30 28 25 24 24 26 24 27 26
2 3 3 3 4 3 1 5 5 9 7 7 7 7 6 5 6 7 7 10 12 15 17 15 15 17 20 21 23 24 25 26 28 29 29 29 29 28 28 24 23 26 29 26
Wind_Direction
234 230 230 228 229 239 237 230 241 250 226 230 229 244 260 250 249 254 254 255 261 258 256 251 249 244 220 198 193 184 184 187 184 183 183 186 186 189 193 196 196 195 194 194
246 235 239 241 241 239 238 239 236 253 242 221 236 242 255 244 244 244 254 249 254 257 257 252 236 226 203 190 194 182 185 183 186 189 187 190 192 192 194 194 196 194 193 189
260 254 246 241 236 233 236 231 235 239 239 235 241 246 255 247 248 246 245 248 250 249 246 246 228 224 207 182 188 182 183 186 188 190 189 186 186 189 192 197 197 198 193 192
265 270 260 252 259 245 238 235 239 240 239 239 209 256 256 249 244 241 245 245 246 241 232 232 235 217 211 194 190 187 183 186 188 188 187 186 183 186 190 192 194 192 195 196
255 254 259 259 260 260 260 276 255 279 286 255 235 230 258 221 245 243 237 233 234 240 240 238 243 185 86 154 188 194 183 183 188 188 189 187 188 190 190 192 191 188 194 199
259 258 262 254 268 263 265 261 261 265 225 244 244 224 260 227 200 233 272 75 38 52 37 242 109 88 72 68 72 154 158 176 190 192 191 192 186 186 187 184 189 189 192 194
313 263 279 233 253 260 280 247 252 222 202 242 212 220 241 237 194 186 99 69 61 64 63 66 67 70 68 69 61 73 104 80 110 171 205 202 213 203 198 209 199 197 203 200
343 338 3 344 294 272 228 247 222 254 232 248 173 217 255 233 313 66 71 80 72 67 65 64 62 63 63 60 67 67 72 68 74 79 107 174 212 215 201 197 205 208 209 209
307 281 216 239 284 297 280 231 234 243 246 278 222 205 50 65 81 79 58 60 66 63 65 68 65 63 59 58 58 67 67 63 67 70 68 72 118 202 194 204 209 202 212 219
284 297 232 295 251 271 65 343 217 198 236 216 219 210 121 90 93 80 69 54 66 63 55 54 57 55 56 56 58 65 67 63 62 66 68 67 70 78 129 183 206 208 215 214
279 253 292 260 283 298 351 319 13 319 9 259 332 63 341 66 82 88 74 51 56 56 52 44 47 48 49 48 50 51 59 62 66 65 67 70 70 70 71 74 66 79 155 217
279 275 282 306 19 55 21 1 348 86 309 351 310 68 62 72 57 61 65 46 56 60 60 48 47 56 48 47 42 44 47 51 54 62 63 68 74 70 61 60 53 39 27 32
328 339 303 330 325 15 28 345 333 330 332 20 320 102 224 121 68 31 16 59 58 52 44 33 28 45 59 55 46 43 42 43 42 41 47 53 55 64 61 65 57 53 25 27
358 237 44 351 298 294 325 339 313 334 77 212 36 94 213 116 121 147 106 64 74 64 57 33 350 27 36 36 38 42 45 43 38 26 29 34 39 40 50 48 51 66 44 34
337 299 325 298 249 317 303 307 317 26 215 67 31 47 163 149 178 139 167 168 112 132 135 154 260 60 270 104 61 49 40 38 21 11 9 8 10 18 35 16 360 20 6 352
333 317 349 296 340 344 325 353 341 97 48 62 63 49 145 175 169 179 199 49 161 120 125 135 105 87 117 73 50 37 50 53 5 8 337 349 353 16 358 1 352 343 333 323
286 265 6 300 323 319 12 356 51 47 86 117 97 285 117 112 34 4 92 74 69 76 97 96 108 137 54 205 352 287 297 327 308 306 322 326 322 332 330 333 335 326 317 311
239 184 164 265 333 51 60 29 72 67 42 40 80 82 90 89 72 63 64 71 58 49 48 36 15 6 2 13 358 344 328 301 289 282 287 298 301 304 307 307 310 313 321 314
193 127 343 87 313 273 34 16 17 60 43 30 61 81 79 75 66 42 48 57 52 42 28 19 16 17 12 14 11 8 1 358 339 311 302 296 287 280 281 287 290 291 292 300
90 95 118 35 43 332 33 335 319 288 64 346 32 49 48 56 62 341 20 43 30 24 28 17 9 11 10 11 9 8 5 -0 357 353 342 333 321 299 278 275 275 277 272 271
329 14 109 142 172 312 336 314 295 45 77 282 12 35 49 55 95 33 31 22 26 38 21 9 1 2 359 357 4 1 351 348 336 332 328 325 320 328 320 292 268 267 257 253
16 340 312 18 44 336 341 335 57 140 237 38 58 42 53 36 24 14 15 24 27 16 7 359 347 341 349 348 343 336 334 330 323 318 311 308 308 307 307 313 303 269 246 237
19 0 44 114 201 338 348 344 254 202 114 56 60 39 60 42 17 17 4 6 0 358 351 348 342 335 330 331 341 332 321 322 317 309 302 299 296 297 296 293 291 272 245 231
317 325 36 104 18 58 65 295 51 80 87 82 69 48 39 53 31 16 9 0 351 346 338 331 323 315 312 323 322 313 312 312 310 307 304 298 290 288 286 282 271 255 238 233
215 8 65 49 233 298 258 258 345 82 68 51 47 74 71 60 15 360 349 345 338 338 335 330 322 322 319 321 317 315 312 309 300 295 295 294 293 286 280 270 259 243 242 233
317 216 129 225 241 197 74 131 126 80 65 58 69 41 30 36 15 11 353 341 341 337 332 331 326 324 319 314 310 310 308 306 298 291 289 285 282 280 278 274 267 246 241 237